[[{"header":{"parameterUnit":"m.s-1","parameterCategory":1,"la1":30.2991,"la2":30.254,"lo1":-89.0895,"lo2":-89.0444,"dy":0.0017,"dx":0.0017,"nx":28,"ny":28,"refTime":"2023-10-01T09:00:00:Z","depth":0,"parameterNumber":2,"parameterNumberName":"U-component_of_WINDS"},"data":[0,0,0,0,0,0,0,0,0,0,0,0,0,0,0,0,0,0,0,0,0,0,0,0,0,0,0,0,0,0,0,0,0,0,0,0,0,0,0,0,0,0,0,0,0,0,0,0,0,0,0,0,0,0,0,0,0,0,-4.3331,-4.3332,0,-4.3429,-4.343,-4.3431,-4.3308,-4.3303,-4.3299,-4.3295,-4.3399,-4.3405,-4.3412,0,0,0,0,0,0,0,0,0,0,0,0,0,-4.3041,-4.3047,-4.3331,-4.3332,-4.3334,-4.3429,-4.343,-4.3432,-4.3309,-4.3303,-4.3298,-4.3292,-4.3396,-4.3405,-4.3413,0,0,0,0,0,0,0,0,0,0,0,0,0,-4.3156,-4.3049,-4.3331,-4.3284,-4.328,-4.3429,-4.343,-4.3432,-4.331,-4.3303,-4.3296,-4.329,-4.3394,-4.3404,-4.3414,-4.3615,0,0,-4.3446,-4.3451,0,0,0,0,0,0,0,0,-4.3149,-4.3167,-4.3289,-4.3287,-4.3284,-4.3349,-4.3366,-4.3494,-4.3312,-4.3299,-4.3294,-4.3287,-4.3388,-4.3398,-4.3432,-4.362,-4.3624,-4.3447,-4.3454,-4.3458,-4.3461,0,0,0,0,0,0,0,-4.3142,-4.3162,-4.337,-4.3291,-4.3288,-4.3259,-4.3267,-4.339,-4.3381,-4.3299,-4.3291,-4.3304,-4.3385,-4.3422,-4.3433,-4.3626,-4.3447,-4.3456,-4.3463,-4.3467,-4.3984,-4.3991,0,0,0,0,0,0,-4.3139,-4.3156,-4.3367,-4.3373,-4.3198,-4.3269,-4.3279,-4.3335,-4.3379,-4.3379,-4.3309,-4.3298,-4.3408,-4.3421,-4.3437,-4.3676,-4.3458,-4.3468,-4.3474,-4.3977,-4.3986,-4.3994,0,0,0,0,0,0,-4.3133,-4.3159,-4.3363,-4.3262,-4.3286,-4.3281,-4.3346,-4.3341,-4.3377,-4.3386,-4.3384,-4.3349,-4.3403,-4.3422,-4.3571,-4.3677,-4.3472,-4.3482,-4.3968,-4.398,-4.399,-4.4155,0,0,0,0,0,0,-4.3125,-4.3157,-4.3233,-4.3265,-4.3292,-4.3496,-4.3352,-4.3348,-4.3395,-4.3381,-4.3423,-4.3423,-4.3399,-4.3556,-4.3582,-4.3688,-4.349,-4.3958,-4.3973,-4.3986,-4.414,-4.417,-4.4196,0,0,0,0,0,-4.3115,-4.3276,-4.3237,-4.3264,-4.3386,-4.3502,-4.3518,-4.3486,-4.3404,-4.3481,-4.3487,-4.3422,-4.3661,-4.3573,-4.36,-4.3712,-4.3952,-4.3969,-4.3985,-4.4127,-4.4164,-4.4195,0,0,0,0,0,0,-4.3258,-4.3279,-4.3237,-4.3413,-4.3456,-4.3481,-4.3577,-4.3526,-4.3594,-4.3578,-4.3536,-4.3547,-4.3706,-4.3723,-4.3624,-4.3908,-4.3793,-4.3816,-4.3892,-4.3927,-4.3955,-4.3948,-4.3499,0,0,0,0,0,-4.331,-4.3402,-4.3415,-4.3569,-4.3593,-4.3582,-4.3631,-4.3602,-4.3646,-4.3665,-4.3681,-4.3728,-4.3813,-4.387,-4.395,-4.4141,-4.4149,-4.4231,-4.4259,-4.4282,-4.4303,-4.4407,-4.4444,-4.4049,-4.4049,-4.4048,0,0,-4.3419,-4.3441,-4.3502,-4.3599,-4.3629,-4.3726,-4.3598,-4.3706,-4.3778,-4.3681,-4.3824,-4.3838,-4.3886,-4.4058,-4.4134,-4.4077,-4.4414,-4.4303,-4.4322,-4.4331,-4.4428,-4.4465,-4.4499,-4.406,-4.4058,-4.4056,0,0,-4.3666,-4.3692,-4.3823,-4.3856,-4.3904,-4.3895,-4.3926,-4.3959,-4.3964,-4.4106,-4.4036,-4.4121,-4.4269,-4.4307,-4.4346,-4.4608,-4.4551,-4.4634,-4.4782,-4.4884,-4.4915,-4.4942,-4.5038,-4.5072,-4.4655,-4.4655,-4.4656,0,-4.3796,-4.3938,-4.3898,-4.4011,-4.4056,-4.3971,-4.4105,-4.4139,-4.4211,-4.4245,-4.4179,-4.4363,-4.439,-4.457,-4.4634,-4.4667,-4.4704,-4.4631,-4.4913,-4.4941,-4.4966,-4.5056,-4.5092,-4.4665,-4.4664,-4.4663,-4.4662,0,-4.4095,-4.4195,-4.4296,-4.4366,-4.4422,-4.4545,-4.4525,-4.4587,-4.4553,-4.4551,-4.4697,-4.4726,-4.481,-4.485,-4.4819,-4.5027,-4.499,-4.492,-4.4803,-4.5014,-4.5098,-4.5132,-4.468,-4.4676,-4.4673,-4.4671,0,0,-4.4438,-4.4483,-4.4521,-4.4552,-4.4598,-4.4675,-4.4794,-4.4875,-4.493,-4.4982,-4.5082,-4.5209,-4.5144,-4.5189,-4.516,-4.5249,-4.5457,-4.5168,-4.5169,-4.5222,-4.5689,-4.5743,-4.5784,-4.5418,-4.5425,-4.543,-4.5686,0,-4.4687,-4.4892,-4.486,-4.5059,-4.5151,-4.5072,-4.5176,-4.5216,-4.5218,-4.5297,-4.5298,-4.539,-4.5297,-4.5323,-4.5407,-4.5414,-4.555,-4.5394,-4.5513,-4.5518,-4.5506,-4.5828,-4.5885,-4.6125,-4.5718,-4.5724,-4.5728,0,-4.5005,-4.5068,-4.5277,-4.5308,-4.5346,-4.544,-4.5512,-4.5588,-4.5632,-4.5627,-4.5676,-4.5632,-4.5752,-4.5632,-4.5798,-4.5693,-4.574,-4.575,-4.5759,-4.577,-4.5637,-4.585,-4.6201,-4.6238,-4.5779,-4.5775,-4.5771,0,-4.5237,-4.5373,-4.5515,-4.5544,-4.5584,-4.5653,-4.5673,-4.5709,-4.5761,-4.5823,-4.5856,-4.5933,-4.5976,-4.6037,-4.6015,-4.5929,-4.6186,-4.6064,-4.6187,-4.6188,-4.6247,-4.6244,-4.6612,-4.6273,-4.6273,-4.6272,-4.6271,0,-4.5519,-4.5651,-4.562,-4.5708,-4.5853,-4.5814,-4.5959,-4.5969,-4.6003,-4.6093,-4.6028,-4.6114,-4.6078,-4.6162,-4.6145,-4.6287,-4.6306,-4.6306,-4.6301,-4.6314,-4.6314,-4.6345,-4.6329,-4.6282,-4.6279,-4.6278,-4.6276,0,-4.5803,-4.5787,-4.5938,-4.5963,-4.5972,-4.6078,-4.61,-4.6183,-4.6179,-4.6293,-4.6318,-4.6312,-4.6407,-4.6391,-4.6496,-4.6485,-4.6662,-4.6635,-4.6648,-4.6642,-4.6767,-4.6756,-4.717,-4.7223,-4.6848,-4.6852,-4.6855,0,-4.5986,-4.6085,-4.612,-4.6175,-4.62,-4.6289,-4.634,-4.6305,-4.6362,-4.6419,-4.6496,-4.6585,-4.6655,-4.6811,-4.6817,-4.6898,-4.6874,-4.7013,-4.6886,-4.6895,-4.6878,-4.6874,-4.6884,-4.7039,-4.7043,-4.7047,-4.705,0,-4.6312,-4.6299,-4.6375,-4.6449,-4.6512,-4.6569,-4.6619,-4.6668,-4.6638,-4.6705,-4.6801,-4.6855,-4.6962,-4.7052,-4.7127,-4.7149,-4.7096,-4.7089,-4.7122,-4.7138,-4.7142,-4.7143,-4.6719,-4.7081,-4.7078,-4.7075,-4.7074,-4.7072,-4.6552,-4.6637,-4.6675,-4.6762,-4.6796,-4.6845,-4.6924,-4.6929,-4.7008,-4.7093,-4.7067,-4.7177,-4.7219,-4.7314,-4.7344,-4.743,-4.7379,-4.7426,-4.7439,-4.7452,-4.7467,-4.7126,-4.7443,-4.7443,-4.7442,-4.7441,-4.744,0,-4.6877,-4.6897,-4.6977,-4.705,-4.7119,-4.706,-4.7113,-4.7175,-4.7272,-4.7315,-4.7384,-4.7495,-4.7582,-4.7595,-4.7677,-4.7744,-4.7722,-4.7767,-4.7763,-4.7769,-4.7508,-4.7472,-4.7784,-4.7784,-4.7784,-4.7784,-4.7784,-4.7783,-4.7054,-4.7194,-4.7186,-4.7343,-4.7363,-4.7469,-4.7504,-4.755,-4.7583,-4.771,-4.7781,-4.7788,-4.782,-4.7904,-4.7982,-4.7983,-4.8018,-4.8073,-4.8066,-4.7822,-4.7788,-4.7755,-4.7721,-4.808,-4.8081,-4.832,-4.8322,-4.8324]},{"header":{"parameterUnit":"m.s-1","parameterCategory":1,"la1":30.2991,"la2":30.254,"lo1":-89.0895,"lo2":-89.0444,"dy":0.0017,"dx":0.0017,"nx":28,"ny":28,"refTime":"2023-10-01T09:00:00:Z","depth":0,"parameterNumber":3,"parameterNumberName":"V-component_of_WINDS"},"data":[0,0,0,0,0,0,0,0,0,0,0,0,0,0,0,0,0,0,0,0,0,0,0,0,0,0,0,0,0,0,0,0,0,0,0,0,0,0,0,0,0,0,0,0,0,0,0,0,0,0,0,0,0,0,0,0,0,0,-3.1994,-3.1994,0,-3.2009,-3.2009,-3.2009,-3.1968,-3.1967,-3.1966,-3.1965,-3.1979,-3.198,-3.1982,0,0,0,0,0,0,0,0,0,0,0,0,0,-3.1928,-3.193,-3.1994,-3.1994,-3.1995,-3.2009,-3.2009,-3.2009,-3.1969,-3.1967,-3.1966,-3.1964,-3.1978,-3.198,-3.1982,0,0,0,0,0,0,0,0,0,0,0,0,0,-3.1952,-3.193,-3.1994,-3.1976,-3.1975,-3.2009,-3.2009,-3.2009,-3.1969,-3.1967,-3.1965,-3.1963,-3.1978,-3.198,-3.1982,-3.2035,0,0,-3.1989,-3.199,0,0,0,0,0,0,0,0,-3.195,-3.1954,-3.1978,-3.1977,-3.1976,-3.1985,-3.1991,-3.2018,-3.1969,-3.1971,-3.1965,-3.1962,-3.1982,-3.1984,-3.1991,-3.2035,-3.2036,-3.199,-3.1991,-3.1992,-3.1993,0,0,0,0,0,0,0,-3.1949,-3.1953,-3.2,-3.1979,-3.1977,-3.1966,-3.1968,-3.1996,-3.1987,-3.1971,-3.1968,-3.197,-3.1981,-3.1989,-3.1991,-3.2036,-3.199,-3.1992,-3.1993,-3.1994,-3.2122,-3.2124,0,0,0,0,0,0,-3.195,-3.1952,-3.2,-3.2,-3.1958,-3.1969,-3.197,-3.1984,-3.1987,-3.1985,-3.1972,-3.1968,-3.1986,-3.1988,-3.1991,-3.2052,-3.1992,-3.1994,-3.1996,-3.212,-3.2123,-3.2125,0,0,0,0,0,0,-3.1948,-3.1954,-3.1999,-3.1975,-3.198,-3.1972,-3.1988,-3.1985,-3.1993,-3.1987,-3.1986,-3.1981,-3.1984,-3.1988,-3.2024,-3.2052,-3.1995,-3.1997,-3.2118,-3.2121,-3.2124,-3.2173,0,0,0,0,0,0,-3.1947,-3.1954,-3.1975,-3.1976,-3.1982,-3.2032,-3.1989,-3.1987,-3.1997,-3.1993,-3.1996,-3.1995,-3.1983,-3.2021,-3.2026,-3.2054,-3.1999,-3.2115,-3.2119,-3.2123,-3.2169,-3.2178,-3.2185,0,0,0,0,0,-3.1945,-3.1988,-3.1976,-3.1982,-3.2007,-3.2034,-3.2037,-3.2023,-3.2,-3.2019,-3.2016,-3.1995,-3.2048,-3.2025,-3.2031,-3.2059,-3.2113,-3.2118,-3.2122,-3.2166,-3.2176,-3.2185,0,0,0,0,0,0,-3.199,-3.1988,-3.1974,-3.202,-3.2027,-3.2027,-3.2052,-3.2035,-3.2048,-3.2044,-3.2025,-3.2026,-3.2065,-3.2066,-3.204,-3.2109,-3.2077,-3.2082,-3.2107,-3.2117,-3.2125,-3.2123,-3.2001,0,0,0,0,0,-3.2006,-3.2028,-3.2025,-3.2065,-3.2069,-3.206,-3.2071,-3.206,-3.2066,-3.2069,-3.2068,-3.2075,-3.2093,-3.2105,-3.2122,-3.2169,-3.2168,-3.2192,-3.22,-3.2206,-3.2211,-3.2235,-3.2245,-3.214,-3.214,-3.214,0,0,-3.2038,-3.2039,-3.2054,-3.2074,-3.2078,-3.2101,-3.2063,-3.2089,-3.2105,-3.2073,-3.2106,-3.2106,-3.2112,-3.2153,-3.2172,-3.2155,-3.224,-3.2212,-3.2217,-3.2219,-3.224,-3.225,-3.2259,-3.2143,-3.2142,-3.2142,0,0,-3.2107,-3.2111,-3.2144,-3.2149,-3.2156,-3.2149,-3.2157,-3.2159,-3.2157,-3.2191,-3.2167,-3.2185,-3.2217,-3.2222,-3.2229,-3.2299,-3.2279,-3.2305,-3.2345,-3.2369,-3.2377,-3.2384,-3.2408,-3.2416,-3.231,-3.231,-3.231,0,-3.2146,-3.2179,-3.2164,-3.219,-3.2199,-3.2171,-3.2204,-3.221,-3.2221,-3.2228,-3.2209,-3.2248,-3.225,-3.2292,-3.2308,-3.2315,-3.2323,-3.2304,-3.2377,-3.2384,-3.2391,-3.2413,-3.2422,-3.2313,-3.2313,-3.2312,-3.2312,0,-3.2225,-3.2249,-3.2275,-3.2286,-3.2298,-3.2328,-3.2316,-3.233,-3.2317,-3.2312,-3.2345,-3.2347,-3.2363,-3.2372,-3.236,-3.2412,-3.2401,-3.238,-3.2347,-3.2404,-3.2424,-3.2433,-3.2317,-3.2316,-3.2315,-3.2314,0,0,-3.2324,-3.2326,-3.2336,-3.234,-3.2345,-3.2362,-3.239,-3.2405,-3.2417,-3.2426,-3.2448,-3.2475,-3.2455,-3.2463,-3.2451,-3.2472,-3.2525,-3.2448,-3.2448,-3.2461,-3.258,-3.2595,-3.2605,-3.2513,-3.2514,-3.2515,-3.2579,0,-3.2391,-3.2439,-3.2426,-3.2473,-3.2494,-3.2467,-3.2491,-3.2496,-3.2492,-3.2508,-3.2503,-3.2522,-3.2496,-3.25,-3.2519,-3.2515,-3.2548,-3.251,-3.2532,-3.2533,-3.253,-3.2616,-3.2632,-3.2692,-3.2587,-3.2588,-3.2589,0,-3.2476,-3.2488,-3.2537,-3.2537,-3.2545,-3.2567,-3.2579,-3.2596,-3.26,-3.2596,-3.2604,-3.2587,-3.2614,-3.2581,-3.2617,-3.2591,-3.2599,-3.2598,-3.26,-3.26,-3.2564,-3.2617,-3.2711,-3.2719,-3.2602,-3.2601,-3.26,0,-3.2541,-3.2569,-3.2602,-3.2607,-3.2608,-3.2624,-3.2625,-3.2628,-3.2637,-3.2648,-3.2653,-3.2667,-3.2674,-3.2685,-3.2672,-3.265,-3.2709,-3.2676,-3.2705,-3.2705,-3.2718,-3.2717,-3.2812,-3.2725,-3.2725,-3.2725,-3.2725,0,-3.2617,-3.2648,-3.2631,-3.2651,-3.2685,-3.2669,-3.2702,-3.27,-3.2703,-3.2721,-3.2699,-3.2717,-3.27,-3.2716,-3.2707,-3.2737,-3.274,-3.2737,-3.2734,-3.2738,-3.2738,-3.2742,-3.2737,-3.2727,-3.2727,-3.2726,-3.2726,0,-3.2695,-3.2686,-3.2719,-3.2717,-3.2717,-3.2742,-3.274,-3.2758,-3.2752,-3.2776,-3.278,-3.2771,-3.2788,-3.2777,-3.2795,-3.2788,-3.2827,-3.2819,-3.2826,-3.2823,-3.2852,-3.2849,-3.2953,-3.2965,-3.2871,-3.2872,-3.2873,0,-3.2744,-3.2767,-3.2767,-3.2778,-3.278,-3.2798,-3.2807,-3.2792,-3.2802,-3.2809,-3.2826,-3.2842,-3.2853,-3.2883,-3.2877,-3.289,-3.2881,-3.2917,-3.2883,-3.2886,-3.288,-3.2878,-3.288,-3.2923,-3.2924,-3.2925,-3.2926,0,-3.283,-3.2824,-3.2838,-3.285,-3.2862,-3.2871,-3.2878,-3.2888,-3.2872,-3.2885,-3.2903,-3.2912,-3.293,-3.2945,-3.2956,-3.2956,-3.2938,-3.2936,-3.2944,-3.2948,-3.295,-3.2948,-3.2843,-3.2934,-3.2933,-3.2932,-3.2932,-3.2932,-3.2894,-3.2913,-3.2915,-3.2931,-3.2935,-3.2942,-3.2958,-3.2954,-3.2968,-3.2981,-3.2971,-3.2992,-3.2995,-3.3007,-3.301,-3.3025,-3.3011,-3.3022,-3.3024,-3.3027,-3.303,-3.2949,-3.3028,-3.3027,-3.3027,-3.3027,-3.3027,0,-3.2978,-3.2978,-3.2993,-3.3003,-3.3016,-3.2998,-3.3004,-3.3016,-3.3034,-3.3038,-3.305,-3.3069,-3.3084,-3.3079,-3.3092,-3.3105,-3.3097,-3.3109,-3.3107,-3.3107,-3.3043,-3.3035,-3.3115,-3.3115,-3.3115,-3.3115,-3.3115,-3.3115,-3.3023,-3.3053,-3.3047,-3.3078,-3.3077,-3.3097,-3.3102,-3.3108,-3.3111,-3.3134,-3.3146,-3.3143,-3.3143,-3.3155,-3.3168,-3.3166,-3.3171,-3.3186,-3.3181,-3.3121,-3.3112,-3.3104,-3.3096,-3.3187,-3.3187,-3.3243,-3.3244,-3.3244]}]]